RH
27 28 27 26 25 24 24 25 26 26 25 24 25 25 25 24 23 22 21 20 20 19 17 15 13 12 12 12 12 13 15 14 17 23 23 20 20 20 21 22 20 19 20 22 23 23 24 23 19 15 11 9 9 9 9 10 10 10 9 9 10 10 9 9 9 8 8 7 5 4 6 15 23 20 12 10 13 15 10 8 12 15 17 17 15 12 14 16
26 27 27 26 25 24 23 23 24 25 26 25 24 24 24 24 24 23 22 21 21 20 19 17 15 13 12 12 12 12 14 14 15 21 24 20 19 20 20 21 20 19 19 20 23 23 24 25 23 19 14 10 9 9 9 10 10 10 10 9 10 11 10 10 9 9 8 8 7 5 8 11 14 21 22 16 12 11 11 13 14 19 29 37 32 25 24 25
25 26 26 26 25 24 23 22 22 23 25 25 25 24 24 24 24 24 23 22 21 20 19 18 16 14 13 12 12 12 12 14 14 17 23 22 19 19 19 20 20 19 19 19 21 22 23 25 26 22 18 12 9 9 9 10 10 10 11 10 10 10 11 11 11 10 8 8 10 7 8 13 17 25 29 26 22 21 24 29 28 25 35 47 39 28 25 22
23 25 26 25 25 25 24 23 22 21 22 24 24 24 24 24 24 24 24 23 22 22 20 19 18 15 13 12 12 12 12 13 14 15 21 24 20 19 19 18 19 19 18 18 20 21 22 24 27 26 22 17 11 9 9 9 10 10 10 11 11 10 10 11 12 11 10 8 9 10 8 10 17 24 30 33 33 29 27 29 32 32 39 46 39 28 19 14
19 23 25 25 25 25 24 23 22 21 21 22 22 23 23 24 24 24 24 24 23 23 21 20 19 17 14 13 12 12 12 12 14 14 17 23 22 19 19 18 19 19 18 18 19 20 21 22 26 27 26 22 15 10 9 9 9 10 10 11 11 11 10 11 12 12 12 11 9 10 9 10 12 15 19 24 27 27 25 19 22 31 39 40 36 29 17 10
18 19 23 25 25 24 24 24 23 22 21 21 21 21 22 22 23 24 24 24 24 23 23 21 20 19 15 14 13 12 13 12 13 14 14 20 24 20 19 19 18 19 19 18 18 19 20 21 24 27 28 26 21 14 10 9 9 10 10 11 11 11 11 10 11 11 12 13 12 10 10 11 11 12 14 12 9 14 22 20 16 19 26 29 31 31 22 11
20 18 19 22 24 24 24 24 23 23 22 21 21 21 21 21 22 23 24 24 24 23 23 22 22 20 17 15 14 13 13 12 12 14 13 16 23 24 19 19 19 19 20 19 18 19 19 20 22 26 28 28 26 19 12 9 9 9 10 10 10 11 11 10 10 10 12 14 16 15 12 11 9 12 16 10 3 5 16 21 17 12 11 13 17 22 23 15
24 20 18 19 21 24 24 24 24 23 22 22 21 21 20 21 22 22 23 24 23 23 23 23 22 21 20 17 15 14 13 13 12 13 14 13 19 25 22 19 19 20 20 20 20 19 19 20 21 24 27 29 29 24 17 11 9 9 10 10 10 11 10 10 10 10 11 12 15 17 16 14 10 10 10 7 4 4 7 12 12 10 9 9 11 13 17 17
24 24 21 18 18 21 23 24 24 23 23 22 22 21 21 21 21 22 23 23 23 23 23 23 23 22 21 19 16 15 14 13 12 12 14 13 15 22 25 20 19 20 21 21 21 20 19 19 20 22 26 28 29 28 22 15 10 9 10 10 10 10 11 11 11 10 11 11 13 16 18 17 14 10 7 7 8 7 6 8 10 11 11 11 11 12 15 17
20 25 24 21 18 18 20 22 24 24 23 22 22 22 21 21 21 22 22 23 23 23 23 23 23 22 22 21 18 16 15 14 13 12 13 14 13 18 25 24 20 20 21 22 22 21 20 19 19 21 24 27 29 30 27 20 13 10 9 10 10 10 11 12 12 11 11 11 13 15 17 17 16 13 9 8 10 11 13 14 14 13 13 13 13 12 13 16
15 21 25 25 22 19 18 19 22 23 24 23 22 22 22 22 21 21 22 23 23 23 23 23 23 22 22 22 20 18 16 14 13 12 12 14 14 14 21 26 23 20 22 23 23 22 21 20 20 20 22 25 28 30 30 25 18 12 9 10 11 11 11 12 12 12 12 12 13 15 16 17 17 15 13 12 12 13 15 15 15 13 13 14 13 12 11 13
14 16 22 26 25 22 19 18 19 21 23 23 23 23 22 22 22 21 22 22 23 23 23 23 23 22 22 22 22 20 17 15 13 13 12 13 15 14 16 24 26 22 22 23 24 23 22 21 20 19 20 24 28 30 31 30 23 15 10 10 11 11 11 12 13 12 12 13 14 15 17 18 17 16 15 15 14 14 14 14 14 14 13 13 12 12 12 11
17 15 17 24 26 26 23 20 18 18 20 22 23 23 23 23 23 22 21 22 22 23 23 23 23 23 23 22 22 21 19 16 14 13 13 12 14 15 14 20 26 25 22 23 25 24 23 22 21 20 20 23 27 30 32 32 27 20 13 10 10 12 12 12 12 12 13 14 14 15 16 17 17 17 17 16 16 15 15 15 14 14 14 13 12 12 11 12
20 18 16 19 24 26 26 24 21 18 18 20 21 23 23 23 23 22 22 22 22 23 23 23 23 23 23 23 22 22 21 18 15 13 13 13 14 15 14 16 23 27 23 23 25 25 25 23 23 21 20 22 26 30 34 34 30 23 16 11 10 11 12 12 12 12 13 14 14 15 16 16 16 16 16 16 16 16 16 16 15 15 14 13 13 12 12 13
20 20 18 17 20 24 26 27 25 21 19 18 19 20 22 23 24 23 22 22 22 22 23 23 23 23 23 23 23 23 22 19 17 14 13 13 13 15 15 14 20 27 25 23 25 26 26 25 23 22 20 21 25 30 33 35 33 26 19 14 11 11 12 12 12 12 12 13 14 15 16 16 17 17 17 17 16 16 16 15 15 15 14 13 13 13 13 14
21 20 20 18 17 20 24 27 27 25 22 19 18 18 20 22 23 24 23 23 22 22 23 23 23 23 23 24 23 23 22 21 18 15 14 13 13 14 15 15 17 25 26 24 24 27 27 26 25 23 21 20 23 29 33 35 34 29 22 18 13 11 11 12 12 12 12 13 13 14 15 15 16 16 16 16 16 16 15 15 15 14 14 14 14 14 14 14
25 21 21 20 18 17 20 25 27 28 26 22 19 17 17 19 21 23 23 23 22 22 22 22 22 23 23 23 23 23 22 21 19 16 15 14 13 14 15 15 16 22 27 25 24 27 28 27 26 24 23 21 22 26 31 34 34 31 26 20 16 12 11 11 12 13 12 12 13 13 14 14 15 15 15 16 17 16 16 15 15 15 15 15 15 15 15 14
26 25 22 21 20 18 17 21 26 28 28 26 23 20 18 17 19 20 22 22 22 22 21 22 22 22 23 23 23 23 23 22 20 17 15 14 14 14 14 15 15 20 27 26 24 26 29 29 27 26 24 22 22 24 28 32 34 34 30 23 19 15 12 11 12 13 13 13 12 12 13 13 14 16 17 17 18 18 18 17 17 17 16 16 16 15 15 15
23 26 24 22 21 20 17 18 23 27 29 28 26 23 20 18 17 18 19 20 21 21 21 21 21 21 22 23 23 24 23 22 21 18 16 15 14 14 14 15 15 19 26 28 24 25 29 30 28 27 25 23 22 23 26 30 33 36 34 26 20 17 15 12 11 12 13 14 14 13 13 14 16 17 18 18 19 19 19 19 19 18 18 17 16 16 15 15
20 23 25 24 22 21 20 18 19 25 29 29 28 26 23 19 17 17 17 17 19 20 20 21 20 21 21 22 23 23 23 23 21 19 17 15 15 14 15 15 15 18 25 28 25 25 29 31 30 28 26 24 23 22 25 28 31 35 37 32 23 18 16 14 12 11 12 14 15 15 15 15 17 18 18 19 20 20 20 20 20 19 19 18 17 16 16 16
19 20 22 25 24 23 21 19 18 21 27 30 29 27 25 22 19 17 16 16 17 17 18 19 20 20 20 21 22 23 23 23 22 19 17 16 15 15 15 15 16 18 23 28 26 25 28 31 31 29 27 26 24 23 24 26 29 33 37 37 28 20 17 15 14 13 11 12 14 15 16 17 17 18 19 20 20 21 21 21 21 21 20 19 18 17 17 17
19 19 19 22 24 24 23 21 19 19 22 27 29 28 26 24 22 20 18 16 16 16 16 17 18 19 19 20 21 22 23 23 22 20 18 16 15 15 15 15 16 18 23 27 27 25 27 31 32 30 29 27 25 24 24 26 28 30 34 38 34 24 18 16 15 14 12 12 12 13 15 16 18 19 20 21 21 21 22 22 22 23 22 21 19 18 17 17
18 20 19 19 21 24 25 23 21 19 20 23 27 28 28 27 25 22 19 17 16 16 15 16 17 18 18 19 20 21 22 23 22 21 18 17 15 15 15 15 15 18 22 26 27 26 26 30 32 31 30 29 27 26 25 25 27 29 31 36 38 31 21 16 14 14 13 12 12 12 13 14 16 19 20 22 22 22 22 22 22 23 23 22 20 18 17 17
14 18 20 19 19 21 24 25 24 21 19 20 23 27 29 29 28 25 21 19 17 16 16 15 15 16 17 17 19 20 21 22 22 21 19 17 16 15 15 15 15 17 21 25 27 27 26 29 32 33 32 31 29 28 27 26 27 28 30 33 38 36 28 19 14 13 13 12 12 12 12 13 14 16 17 20 21 21 21 21 22 23 23 22 21 19 18 18
10 14 18 20 19 19 20 24 26 24 21 19 20 23 27 30 30 28 24 20 18 17 16 16 15 15 16 16 17 19 20 21 22 21 20 17 16 15 15 15 16 17 20 25 28 28 26 27 31 33 33 32 30 30 29 28 28 28 29 31 35 38 34 25 16 13 13 12 12 12 12 12 12 13 14 16 17 17 17 18 19 20 21 22 21 20 20 19
8 10 14 18 20 19 19 21 25 26 23 20 19 20 24 28 31 30 27 23 20 18 17 16 16 15 15 15 17 18 19 21 21 21 20 18 16 16 16 15 16 17 19 24 28 29 28 27 29 32 33 33 32 31 30 30 29 29 29 30 33 37 38 32 21 13 13 13 12 12 12 12 12 12 13 14 14 14 14 14 14 16 18 20 21 21 20 20
7 8 10 15 19 20 20 19 22 26 26 23 20 19 21 25 29 30 30 27 23 20 18 17 16 16 15 15 16 17 18 20 21 21 20 18 16 16 16 16 16 16 18 23 27 30 30 28 28 30 32 33 33 32 32 31 31 30 30 30 31 34 37 38 31 19 13 12 12 12 12 12 12 12 12 12 13 13 12 12 12 12 14 16 18 19 19 20
7 8 8 11 16 19 21 20 20 23 26 26 22 20 20 21 25 29 31 31 27 22 19 18 17 16 16 15 16 16 17 19 20 21 20 18 16 16 16 16 16 16 17 21 26 30 31 30 28 28 30 32 34 34 33 33 33 32 31 30 30 32 34 38 38 30 20 13 12 12 12 12 12 12 13 12 13 13 12 12 12 12 12 13 15 17 17 18
7 7 8 9 12 16 20 21 20 20 24 27 25 22 20 19 22 26 30 33 30 26 22 19 18 17 16 16 16 16 17 18 19 20 20 19 16 16 16 16 16 17 17 19 24 29 32 32 30 28 29 31 33 34 35 35 35 34 33 32 31 31 32 35 39 38 31 20 14 12 12 12 12 13 13 12 13 13 13 13 12 13 13 13 14 14 15 16
7 7 7 8 9 13 18 21 21 20 21 26 28 25 21 20 20 23 28 32 32 30 25 21 19 18 16 16 16 16 16 17 18 20 20 19 17 16 16 17 16 17 17 17 21 27 31 34 33 30 29 31 32 34 35 35 36 37 35 34 33 33 32 33 36 40 39 31 22 15 13 12 12 13 13 12 13 13 13 14 13 13 13 13 14 14 15 15
7 7 7 8 9 10 14 19 22 21 20 23 28 28 25 21 20 22 26 29 33 34 29 24 21 19 17 16 16 16 16 17 17 18 19 19 17 16 16 17 17 17 17 17 19 23 28 32 35 34 32 30 32 34 34 34 35 37 37 36 36 35 34 33 33 36 39 38 32 23 16 13 12 13 14 13 13 14 14 14 14 14 14 14 14 14 15 15
6 7 7 7 8 9 11 16 20 22 21 21 26 29 28 24 21 22 24 27 32 34 32 28 24 21 19 17 16 16 16 16 17 18 18 19 18 17 16 17 17 17 17 17 18 20 24 29 35 38 37 33 31 32 33 33 33 35 36 37 37 37 36 35 34 34 36 39 38 33 24 17 14 13 14 14 14 14 14 14 14 14 14 14 14 14 15 15
6 7 7 7 7 8 10 12 17 22 23 21 23 28 30 28 24 23 23 25 29 31 33 33 28 23 21 18 16 16 16 16 16 17 17 19 19 17 17 16 16 17 16 17 18 19 21 25 32 39 40 39 35 32 31 30 31 33 35 36 38 38 38 37 36 34 35 37 40 40 34 25 18 14 13 14 15 15 15 15 15 14 14 14 14 14 15 15
6 6 7 7 7 8 10 11 14 19 23 23 22 25 31 32 28 25 23 24 25 28 32 34 32 27 22 20 17 16 16 16 16 16 17 19 19 18 17 16 15 16 17 17 17 18 19 21 27 35 41 43 41 37 33 30 30 32 34 36 38 39 39 39 39 37 36 37 40 43 41 33 25 18 14 14 15 16 15 15 15 14 14 14 14 14 14 15
6 6 6 7 7 8 10 11 12 15 21 24 23 23 30 35 32 27 24 23 24 26 30 33 33 30 25 21 19 16 16 16 16 16 17 19 20 18 17 17 16 16 16 16 16 16 18 19 22 30 37 42 45 44 39 33 31 32 33 35 37 38 39 40 40 39 37 36 39 42 44 40 32 25 19 15 14 15 16 16 15 15 14 14 14 14 14 15
7 6 6 7 7 8 9 11 12 13 17 23 24 24 29 35 35 31 27 24 24 26 29 33 33 32 29 24 20 18 16 16 16 15 17 19 19 19 18 17 16 16 15 15 15 15 16 17 20 24 31 39 44 46 45 40 34 32 33 34 36 37 39 40 41 41 38 37 38 40 42 42 38 32 25 18 15 15 16 16 15 15 15 14 15 15 15 15
7 7 6 7 7 7 9 10 12 13 15 20 25 26 28 31 34 34 30 26 25 25 29 32 33 34 34 28 23 20 17 16 16 15 16 18 19 19 19 18 17 16 16 15 15 15 15 16 18 21 25 32 40 45 47 46 41 35 33 32 34 36 38 40 41 41 40 39 39 39 39 40 39 37 32 25 18 15 15 16 15 15 15 15 16 15 15 15
7 7 6 7 7 7 9 10 12 13 14 18 25 28 27 29 33 36 35 30 26 26 29 31 32 34 36 32 26 22 19 17 16 16 16 18 20 20 19 19 18 17 16 15 15 15 15 15 16 19 22 26 34 41 45 49 47 42 36 33 33 35 38 40 41 41 41 40 40 40 39 37 37 39 38 32 24 18 16 15 15 15 16 16 16 16 15 15
8 7 7 7 7 7 8 10 12 14 15 18 25 29 29 29 31 36 38 34 29 27 29 30 32 35 36 34 29 24 20 18 16 16 17 17 19 20 19 18 18 18 17 16 16 14 14 15 15 16 19 23 29 35 41 47 50 48 42 36 34 36 38 40 40 41 42 42 42 41 40 37 35 38 40 37 30 23 18 16 16 16 16 17 17 16 15 15
8 7 7 7 7 8 8 9 13 15 16 20 24 29 31 30 30 35 39 37 33 29 29 30 32 35 37 35 31 26 22 19 17 17 17 18 19 20 19 19 18 18 17 17 16 15 14 15 15 15 17 20 25 30 37 43 49 50 46 40 37 37 39 39 40 42 43 43 43 43 44 40 35 38 41 40 35 29 22 18 16 16 17 18 18 17 16 15
8 8 7 7 7 8 8 9 14 16 17 20 24 29 32 32 31 34 39 40 37 32 30 30 32 34 36 36 32 28 24 20 18 17 17 18 19 20 19 19 19 18 18 18 16 16 15 14 14 15 17 19 22 27 34 41 46 48 47 44 40 38 38 39 41 43 44 44 44 45 48 44 36 38 41 41 38 33 27 21 18 17 18 19 19 18 17 16
8 8 7 7 7 7 8 9 13 17 18 20 24 28 31 33 33 33 38 41 40 36 32 31 32 34 36 36 34 30 26 22 19 18 18 18 19 20 19 19 19 19 18 18 17 16 16 15 14 15 17 18 21 25 32 38 43 46 46 45 42 38 38 40 42 44 44 45 44 45 52 48 38 39 42 41 39 35 30 24 20 18 18 19 19 18 18 17
8 8 7 7 7 7 8 10 13 18 20 20 23 28 31 34 35 34 37 41 42 39 35 33 33 33 35 36 34 30 27 23 20 18 18 19 19 19 19 19 19 19 18 17 17 17 17 16 15 15 17 19 20 24 29 35 41 44 44 43 40 39 39 41 43 45 45 45 43 47 54 49 41 42 43 41 40 36 31 26 21 19 18 18 19 19 18 19
8 8 7 6 7 7 8 10 14 18 21 20 23 28 32 35 37 37 38 41 44 42 39 36 34 34 35 35 34 32 27 23 20 19 18 19 19 19 19 19 19 18 18 17 18 18 17 16 15 16 18 19 21 24 28 34 40 44 44 41 39 39 40 42 44 45 45 45 45 49 52 49 46 46 43 41 41 37 32 27 22 19 18 18 19 19 19 19
8 7 7 6 6 7 8 11 15 19 22 22 23 28 34 37 39 41 42 44 46 46 42 39 36 35 35 35 34 32 28 23 21 20 18 18 19 19 19 19 18 18 17 17 18 18 17 17 16 16 18 20 22 26 30 37 42 45 44 40 39 39 40 43 44 44 45 45 48 50 49 49 51 48 43 42 42 39 34 29 23 20 19 19 19 19 19 19
9 7 7 7 7 8 10 12 17 21 23 23 24 27 34 39 41 44 46 46 47 48 45 41 38 36 35 35 34 31 28 24 21 20 19 18 19 19 18 18 18 17 17 17 18 18 17 17 16 18 19 20 24 29 35 41 44 46 44 41 40 40 42 44 43 43 44 45 49 51 47 50 54 48 43 43 43 40 36 29 24 21 20 20 20 20 20 19
9 9 8 8 8 8 11 15 20 24 25 25 25 27 33 39 43 46 48 47 48 50 48 44 41 38 37 36 35 32 28 25 22 20 19 19 18 18 18 18 17 17 17 17 17 17 16 17 18 20 21 22 27 34 40 45 46 45 44 42 41 41 43 44 43 43 44 45 49 49 46 52 55 48 43 44 44 42 37 30 25 22 20 21 20 20 20 19
10 11 10 10 11 11 14 20 24 26 28 28 27 28 32 39 43 47 49 48 49 51 49 47 43 40 38 37 35 33 29 26 23 21 19 18 18 18 17 17 17 17 17 17 17 16 16 17 20 22 22 26 33 40 45 47 46 43 42 43 43 43 44 44 43 44 45 45 47 48 48 53 54 46 43 44 43 41 37 31 26 22 21 21 21 20 20 19
12 13 13 12 13 16 19 24 28 30 31 30 30 29 32 38 43 48 50 51 52 53 50 48 46 42 39 38 35 32 30 26 23 21 19 18 18 18 17 17 17 17 17 16 16 15 16 19 22 24 27 32 39 45 48 48 44 42 42 44 45 45 44 44 44 45 45 45 46 49 53 57 53 45 43 43 42 39 36 30 26 23 21 22 22 21 21 20
15 16 17 16 17 20 24 29 32 35 34 33 34 32 32 37 42 47 52 53 55 56 53 49 48 44 40 39 37 34 31 28 24 21 20 18 17 17 17 17 17 16 16 15 14 15 18 22 25 28 33 40 46 50 50 46 42 41 43 46 47 46 45 44 45 45 44 45 47 50 55 57 53 47 46 45 43 40 35 30 25 23 22 22 22 22 22 22
20 20 21 21 22 25 30 35 37 38 38 37 37 36 34 36 41 45 51 55 57 58 55 52 49 46 42 39 37 35 32 29 26 23 20 18 18 17 16 16 16 15 15 14 14 17 21 25 29 34 40 46 49 50 48 44 42 43 46 49 49 47 46 46 45 44 44 45 48 50 51 52 49 48 48 47 45 42 35 29 25 23 22 22 23 24 23 24
27 25 27 28 29 31 35 41 42 41 42 41 40 40 38 36 39 44 49 54 59 59 57 54 51 47 44 40 37 34 32 29 26 24 21 19 18 16 16 15 14 14 14 14 16 21 26 30 35 41 46 48 49 49 47 45 45 48 50 51 50 48 49 48 45 45 46 47 49 49 48 47 45 46 47 46 45 41 33 27 24 23 23 24 25 25 25 26
Wind_Speed
30 29 28 27 26 24 22 20 19 18 17 16 14 12 11 8 7 7 8 9 10 11 12 14 15 16 18 19 21 22 24 25 26 27 28 27 27 27 28 29 31 32 33 35 37 40 42 43 43 42 41 39 35 31 25 19 15 13 12 10 7 6 6 3 5 5 6 7 7 7 9 9 8 8 7 5 3 3 4 6 6 5 5 5 4 3 3 2
32 31 30 30 29 27 25 23 21 20 20 19 17 15 13 11 9 8 9 9 10 11 12 13 15 16 17 19 20 22 23 24 25 26 27 27 26 26 27 28 29 31 32 33 35 37 40 42 42 43 42 40 37 34 29 23 18 15 13 11 8 6 6 4 3 3 4 6 6 7 8 8 7 7 5 5 5 4 5 6 6 5 6 7 6 4 3 3
35 34 33 32 31 30 28 26 24 22 22 21 20 18 16 14 12 11 10 10 11 12 12 12 14 16 17 18 20 21 22 23 24 25 26 26 26 26 26 27 27 29 30 32 33 35 37 40 42 43 43 42 40 37 33 28 22 18 14 12 10 6 5 4 2 1 2 4 5 6 7 6 6 5 4 5 6 5 4 5 5 5 6 5 5 5 5 5
37 36 35 34 33 32 31 29 27 25 24 23 22 21 19 16 15 13 12 11 11 12 12 12 13 15 16 17 19 20 21 22 22 23 24 25 25 25 25 26 26 27 29 30 32 33 35 38 40 42 44 43 41 39 36 31 26 21 16 12 10 8 7 6 6 5 4 3 4 5 6 5 5 5 4 3 4 3 2 3 3 4 4 3 3 4 6 7
39 39 38 36 35 34 34 32 30 28 26 25 24 23 22 19 17 16 14 13 13 13 13 12 13 14 15 17 18 19 21 21 21 22 22 23 24 24 24 25 25 26 28 29 31 32 33 36 38 41 43 44 43 41 38 34 29 24 19 14 10 8 8 8 9 8 5 4 3 4 4 3 3 3 3 3 2 2 1 1 2 2 2 3 3 3 4 6
42 41 40 39 38 37 36 35 33 31 29 27 26 25 24 22 20 18 17 16 15 14 14 13 13 13 15 16 17 19 20 20 20 21 21 21 22 23 23 24 24 25 26 28 29 31 32 34 36 39 42 43 43 42 40 37 33 28 23 17 11 8 9 9 10 8 5 4 3 2 1 1 2 3 3 3 3 3 3 1 0 0 1 4 5 5 4 4
44 43 42 41 40 39 38 37 35 34 32 30 28 27 25 24 22 21 19 18 17 16 15 15 14 13 14 15 16 18 19 20 19 19 20 20 21 21 22 23 23 24 25 26 28 29 31 33 35 37 40 42 43 42 41 39 36 32 27 21 15 11 8 8 8 6 4 3 3 2 3 4 4 5 5 5 3 2 3 3 2 2 2 4 5 7 7 7
46 45 44 43 42 42 41 39 37 36 35 33 31 29 28 26 24 23 22 20 19 17 17 16 15 14 14 15 16 17 18 19 19 18 19 19 20 20 21 21 22 23 24 25 26 28 30 31 33 35 37 40 42 42 41 41 39 35 30 26 21 15 10 5 4 2 2 3 3 3 4 4 5 6 6 6 5 4 4 4 4 3 4 4 5 6 7 8
48 47 46 46 45 44 43 41 40 39 37 35 33 31 30 28 26 25 24 22 21 20 18 17 17 15 15 15 15 16 18 18 18 18 18 19 19 19 20 20 21 22 23 24 25 26 28 29 31 33 35 38 40 41 42 41 40 38 33 29 25 20 15 9 5 3 1 1 2 2 3 4 6 7 8 7 7 6 6 6 6 6 6 5 5 6 7 8
48 49 48 48 47 47 46 44 42 41 39 38 36 34 32 30 28 27 26 24 23 22 20 19 18 17 16 15 15 16 17 18 18 18 18 19 18 18 20 20 19 20 21 23 24 25 26 28 29 31 33 35 38 41 42 42 41 39 36 32 28 25 20 15 10 7 5 2 1 2 3 4 6 7 8 8 8 7 7 7 8 8 8 7 6 7 8 8
48 50 50 50 49 49 48 46 45 43 42 40 38 36 34 33 31 29 28 26 25 24 22 20 20 19 18 16 16 16 17 17 18 18 18 18 19 18 19 20 19 19 20 21 23 24 25 26 27 29 31 33 37 40 42 42 41 40 38 33 30 28 24 19 15 12 8 4 2 2 2 3 5 6 7 7 7 7 7 7 8 9 9 8 8 8 8 9
49 50 51 51 51 51 50 48 47 46 44 43 41 39 37 35 33 32 30 28 27 26 24 22 21 20 19 18 17 16 17 17 17 18 18 18 19 18 18 19 19 19 19 21 22 23 25 26 26 28 29 32 35 38 41 41 40 39 38 35 32 30 26 21 17 14 11 7 3 2 2 3 4 5 5 6 6 6 6 6 7 8 9 9 9 9 9 10
51 50 51 52 53 53 52 51 49 48 47 45 43 41 39 37 36 34 32 31 30 28 26 24 23 22 21 20 18 17 17 17 17 18 18 18 19 19 18 18 19 19 18 20 21 23 24 25 26 27 29 31 33 36 39 40 40 38 37 36 34 31 27 22 17 15 12 9 5 2 1 2 3 4 4 4 4 4 4 5 6 7 9 10 10 10 10 11
54 52 52 53 54 54 54 53 52 50 49 48 46 44 42 40 38 37 35 33 32 30 29 27 24 23 23 22 20 19 18 17 18 18 18 18 18 19 18 18 18 19 18 19 20 22 23 25 26 26 28 29 32 34 37 39 39 38 36 36 35 32 27 23 18 16 13 11 8 5 3 1 0 1 2 2 3 3 4 4 5 7 8 10 10 10 11 11
56 55 54 54 55 55 55 54 53 52 51 50 48 47 45 43 41 39 38 36 34 32 31 29 27 25 24 23 22 21 19 18 18 18 18 18 18 19 19 18 18 18 18 18 19 21 22 24 25 26 27 28 30 32 35 37 37 37 36 36 35 32 28 25 21 18 15 12 9 7 5 3 2 1 1 1 2 3 4 4 5 6 7 9 10 11 11 12
58 57 56 55 55 56 56 56 55 54 53 52 51 49 47 45 44 42 40 39 37 35 33 31 29 27 26 25 24 23 21 20 19 18 19 19 19 19 19 18 17 18 18 17 18 20 21 23 24 25 26 26 28 31 32 34 36 37 37 36 35 33 30 27 24 22 19 16 12 10 8 6 5 5 4 5 5 5 6 6 6 7 8 9 10 11 11 12
60 59 58 57 56 57 57 57 56 56 55 54 53 51 50 48 46 45 43 41 39 37 35 34 32 30 28 27 26 25 23 22 20 19 19 19 19 19 19 19 18 18 18 17 17 19 20 22 23 25 25 25 27 29 30 32 35 37 37 35 34 33 32 29 25 22 21 19 16 13 12 11 12 11 11 11 11 10 10 10 10 10 10 10 11 12 12 12
62 61 60 59 58 58 57 58 58 57 57 56 55 54 52 50 49 47 46 44 42 40 38 36 35 32 30 29 28 26 25 24 22 20 19 19 20 19 19 19 18 17 18 18 17 18 20 21 22 24 24 24 25 26 29 31 35 37 37 36 34 33 32 30 27 23 21 20 18 16 15 16 16 15 14 14 13 13 12 12 12 13 13 12 12 12 13 13
62 62 62 61 60 59 58 58 59 59 58 58 57 56 54 52 51 49 48 46 44 43 40 39 37 35 33 31 29 28 27 25 23 21 20 20 20 19 19 20 18 17 18 18 17 17 18 20 21 23 24 23 24 25 27 30 33 36 37 37 35 34 32 31 29 25 22 20 19 18 18 17 16 15 14 14 14 14 14 14 14 15 15 15 14 14 14 14
62 62 63 63 62 61 60 59 60 60 60 60 59 58 56 55 53 51 50 48 47 45 43 41 39 37 35 33 31 30 28 27 25 23 21 20 20 20 20 20 19 17 17 18 17 16 17 18 20 22 23 23 23 24 26 28 31 34 36 37 36 35 33 31 30 28 24 21 20 19 18 18 16 15 15 14 14 15 15 16 16 17 17 18 18 17 17 16
65 63 63 64 64 63 61 61 60 61 62 61 61 60 58 57 55 53 51 50 49 47 45 43 41 39 37 35 33 32 30 29 27 25 23 21 20 20 20 20 19 18 17 18 17 16 16 17 19 21 22 23 23 23 24 26 29 31 34 36 35 34 34 32 30 29 26 23 21 20 19 17 16 16 15 15 15 15 16 17 17 18 19 20 20 20 19 18
68 66 64 64 65 64 63 62 62 62 63 63 62 61 60 58 57 55 53 52 50 49 47 45 43 41 39 38 36 34 32 31 29 27 24 22 21 20 20 20 19 18 18 18 17 17 16 17 19 20 21 22 23 23 23 25 27 29 31 33 34 34 33 32 30 28 27 25 22 21 20 18 17 16 16 16 16 16 17 17 18 19 20 21 21 21 20 20
70 68 67 66 65 66 65 64 63 63 63 64 64 63 61 60 59 57 56 54 52 50 49 47 45 43 42 40 38 36 34 33 31 28 26 24 22 21 21 20 20 19 19 19 18 17 16 16 18 19 20 21 22 23 23 24 26 28 30 31 33 33 32 31 30 28 27 26 24 22 21 20 18 17 16 16 16 16 17 18 18 19 20 21 22 21 21 21
71 71 70 68 67 66 66 66 65 64 64 64 64 64 63 62 61 60 58 56 54 52 51 49 47 45 44 42 40 38 36 34 32 30 27 26 24 22 21 21 20 20 20 19 19 18 17 16 17 19 20 21 22 23 23 24 25 27 29 30 31 32 32 31 30 28 27 26 25 23 22 21 19 18 18 17 18 18 18 18 18 18 19 21 22 22 22 21
73 72 72 71 69 67 67 67 67 66 66 65 65 65 64 64 63 61 60 58 56 54 53 51 49 47 45 43 42 40 38 36 34 32 29 27 25 23 22 22 21 20 20 20 20 19 18 17 17 18 20 21 22 22 23 24 24 26 28 29 30 31 32 31 30 28 27 27 26 24 23 22 21 20 19 18 19 19 19 19 18 18 19 20 22 23 22 23
73 74 74 73 72 70 68 69 69 69 67 66 66 65 66 65 64 63 62 60 58 57 55 53 51 49 47 45 44 42 40 38 36 34 31 29 26 25 24 23 21 21 21 21 21 20 19 19 18 17 19 20 21 22 23 23 24 26 27 28 29 30 31 31 30 29 27 27 26 25 24 23 22 21 20 19 19 20 19 20 19 19 19 20 22 23 23 24
75 75 75 75 74 73 71 70 70 70 69 68 67 66 66 67 66 65 63 62 60 59 57 55 53 50 48 46 45 44 42 40 38 36 33 30 28 27 25 24 22 22 21 21 22 22 21 20 19 18 18 19 21 22 22 23 24 25 27 28 28 29 30 31 30 29 28 26 26 26 25 24 23 22 21 20 19 20 21 21 21 20 20 20 22 24 24 25
76 77 77 77 76 75 74 73 72 71 71 70 68 68 68 67 67 66 65 64 62 61 59 57 54 52 49 48 46 45 44 42 40 37 34 32 30 28 27 25 24 22 22 22 22 23 22 22 21 20 19 19 21 22 23 23 24 24 26 27 28 29 30 30 30 30 29 27 26 25 25 24 23 23 23 22 21 21 22 23 23 22 22 21 21 23 25 26
77 78 78 78 78 77 76 76 74 73 72 71 70 69 69 68 68 67 66 65 64 63 61 59 57 54 51 49 47 46 45 44 41 39 37 34 32 30 28 27 25 24 23 23 23 24 23 23 23 22 21 21 21 22 23 24 24 24 26 27 28 29 30 31 31 31 31 29 27 26 25 24 23 22 23 23 22 22 24 25 25 25 24 24 23 23 25 26
77 79 80 80 80 80 79 78 77 75 73 73 72 71 70 69 69 68 68 67 65 64 63 61 58 56 53 50 48 48 47 45 43 41 39 36 34 31 30 29 27 25 25 25 24 25 25 24 24 23 23 23 22 23 23 24 24 24 25 26 27 28 30 31 31 32 32 31 30 28 26 25 24 22 23 23 23 23 24 25 26 26 26 26 25 24 25 27
77 79 81 82 83 82 81 80 79 77 75 74 74 73 71 70 69 69 69 68 67 66 65 63 61 58 55 52 50 49 47 46 44 43 41 38 35 33 32 31 28 27 27 26 26 26 26 26 25 25 25 25 24 24 25 25 24 24 25 26 27 28 30 30 31 32 33 33 32 30 29 28 26 24 24 24 23 23 24 25 26 26 27 27 27 27 27 28
77 79 81 83 85 84 83 82 81 79 77 76 75 75 73 72 70 70 70 70 69 68 66 64 62 60 57 55 52 49 48 47 46 45 43 39 36 35 34 32 30 29 29 28 28 28 27 27 26 26 26 27 27 26 26 26 26 26 26 26 27 28 30 30 31 32 34 34 34 33 32 31 30 27 26 26 25 24 24 25 26 26 27 27 27 27 28 30
78 80 81 84 86 86 85 84 83 81 80 78 77 76 75 73 71 72 72 71 70 69 67 65 63 62 59 56 53 50 48 48 48 47 45 41 39 37 36 34 33 31 30 30 30 29 29 28 28 28 28 29 29 28 29 28 27 27 27 27 28 29 30 31 32 33 34 35 36 35 34 34 33 31 29 28 27 27 26 27 27 28 28 28 28 28 28 30
79 80 81 83 86 88 87 87 85 84 82 81 79 77 76 74 74 74 73 72 71 69 68 66 64 63 60 57 54 51 50 50 50 49 46 43 41 40 39 37 35 33 32 32 32 31 30 30 29 29 30 30 31 30 31 30 30 29 29 29 29 30 31 32 33 33 34 35 36 36 37 37 36 35 34 32 30 30 29 29 30 30 30 30 30 30 30 30
80 81 81 82 85 89 90 90 88 86 84 83 81 78 77 77 77 75 73 72 71 70 69 67 66 64 62 59 57 54 52 52 52 50 48 46 45 43 41 39 37 36 35 35 34 33 32 31 31 31 32 32 32 33 33 32 32 32 31 31 31 31 32 32 33 34 35 36 36 37 37 38 39 39 38 36 34 33 33 32 32 33 33 33 33 33 33 33
80 81 81 82 85 90 93 92 90 88 86 84 82 80 79 80 79 76 74 73 72 71 70 69 67 65 63 61 59 57 55 53 53 52 50 49 47 46 44 42 40 40 38 37 36 35 35 34 33 33 34 34 34 35 35 35 34 34 33 33 32 32 33 33 34 35 36 36 36 37 38 39 40 41 40 39 38 36 36 36 36 36 37 36 36 36 36 36
80 81 81 82 84 90 94 95 92 90 88 86 84 83 83 82 80 78 75 74 72 71 71 70 68 66 65 63 61 59 57 55 54 53 52 51 49 48 47 46 44 43 41 39 38 38 37 36 35 36 35 36 37 37 37 37 36 36 36 35 34 34 34 35 35 36 37 37 38 38 39 40 41 42 42 42 41 40 39 40 40 40 40 39 39 39 39 39
79 81 81 82 85 90 95 96 94 92 90 87 86 86 85 83 81 79 77 75 73 72 71 71 69 68 66 64 62 61 58 56 55 54 54 53 52 51 51 49 47 46 44 41 41 41 40 39 38 38 38 38 39 39 39 39 39 39 38 37 36 36 36 36 37 38 38 39 39 40 41 41 42 43 43 43 43 43 42 43 43 43 42 42 42 42 42 42
78 80 81 83 85 90 95 97 96 94 92 90 89 88 87 85 83 80 78 76 74 72 72 71 70 69 67 65 64 62 60 58 57 56 55 55 54 54 54 52 50 48 46 44 43 43 43 41 40 40 40 40 41 41 40 40 41 41 41 40 39 38 38 38 39 39 40 40 41 42 43 43 43 43 44 45 45 45 45 46 46 46 45 44 44 45 45 45
76 79 81 83 86 90 94 97 97 96 94 92 92 91 90 88 85 82 80 78 75 73 73 72 71 70 68 67 65 64 62 60 58 57 56 56 57 57 56 54 52 50 47 46 46 46 46 44 43 42 42 42 42 43 43 42 43 43 43 42 41 40 40 41 41 41 41 42 43 44 46 45 44 45 46 46 47 48 47 48 48 48 48 47 47 48 48 48
75 77 80 83 87 90 94 97 99 98 96 95 94 94 92 90 86 83 81 79 77 75 73 72 72 71 69 68 67 65 64 62 60 58 58 58 59 59 57 56 54 52 49 49 49 48 48 47 45 44 44 44 44 44 45 45 45 45 45 44 43 42 42 42 42 42 43 43 44 45 48 48 46 46 47 48 49 49 49 50 50 50 50 50 50 50 51 50
73 75 79 82 87 91 94 98 101 100 99 98 97 96 94 91 88 85 83 81 79 76 74 73 72 71 70 69 68 67 65 63 62 60 60 61 61 61 59 57 55 53 51 51 51 50 49 49 48 47 46 45 45 46 46 47 47 47 46 45 45 44 44 44 44 44 44 45 45 46 49 50 49 48 49 50 51 51 51 51 51 51 51 51 52 53 53 52
70 73 77 81 87 91 95 99 102 102 101 99 99 97 95 92 90 87 85 83 81 78 76 74 73 72 71 70 69 68 67 65 64 63 63 63 63 62 59 57 57 55 53 53 53 52 51 51 51 50 48 48 48 48 48 48 49 49 48 47 46 46 46 46 46 46 46 47 47 47 50 52 52 51 51 52 53 53 53 53 53 53 53 53 54 54 54 54
68 70 75 80 86 92 96 100 103 104 102 101 100 98 96 94 92 90 87 84 82 79 77 75 73 72 72 71 70 69 68 67 66 65 64 64 64 62 60 59 58 57 56 56 55 54 53 53 53 52 51 50 50 50 50 50 50 50 50 49 48 47 47 47 47 48 48 48 48 49 51 54 54 54 54 55 55 56 56 55 55 54 54 55 55 55 55 55
65 68 72 78 85 91 96 100 103 104 103 101 100 100 98 96 94 91 88 86 83 80 78 76 74 73 72 71 70 70 69 69 68 67 66 66 65 63 61 60 59 59 58 58 57 56 55 55 55 55 54 54 53 52 51 51 52 52 52 50 49 49 49 49 49 49 50 50 50 51 52 55 56 56 57 57 58 58 57 57 57 57 57 56 56 56 57 57
62 65 70 76 83 90 96 100 103 105 104 102 101 101 99 97 95 93 90 88 85 82 80 78 76 74 73 72 72 71 71 71 70 69 68 67 66 64 63 62 61 61 61 60 59 58 58 58 58 57 57 56 55 53 53 53 53 53 53 52 51 51 51 52 51 51 51 51 51 53 53 55 58 58 58 59 59 60 59 59 59 59 59 58 58 58 59 59
59 63 68 74 81 87 94 99 102 103 104 103 102 101 100 99 97 94 92 90 87 84 82 79 77 76 74 74 73 73 73 72 72 71 70 69 67 66 65 64 64 63 63 62 61 60 60 60 60 60 59 58 56 55 55 55 55 55 54 53 53 53 54 54 53 53 53 53 54 55 55 56 59 60 60 60 61 61 62 62 62 61 61 61 61 61 61 61
57 61 66 72 78 85 91 97 100 102 103 103 102 102 101 100 98 95 93 91 88 85 84 81 79 77 76 75 75 74 74 74 73 72 71 71 69 68 67 67 66 66 65 65 63 62 62 62 62 62 61 59 58 57 57 57 57 56 55 54 54 55 56 56 55 55 55 55 56 57 57 59 61 62 62 63 63 64 64 64 63 64 64 64 63 63 63 63
55 59 65 71 76 83 89 94 98 100 101 102 102 101 101 100 99 97 94 91 89 87 85 83 80 79 78 77 76 76 76 76 75 74 73 73 72 71 70 70 69 68 68 67 66 64 64 65 63 62 62 61 60 60 60 59 59 57 56 56 56 57 58 57 56 57 57 57 57 58 58 61 63 64 64 65 66 66 66 66 65 65 66 66 66 65 65 64
52 57 63 69 75 81 87 92 95 97 99 100 100 101 101 100 99 97 95 92 89 88 86 84 82 80 79 78 78 78 77 77 77 76 75 75 74 73 73 72 71 71 70 69 68 67 67 67 65 63 62 62 62 63 62 61 60 59 58 58 58 59 59 58 59 59 59 58 58 59 59 62 64 64 65 66 67 67 67 67 67 67 67 68 68 67 67 66
51 56 62 67 73 79 84 89 93 95 96 97 98 99 99 100 99 98 95 93 91 89 87 85 83 82 81 80 80 79 79 79 79 78 77 77 77 76 75 74 74 73 72 71 70 69 69 68 66 65 64 64 64 65 64 63 61 60 59 60 61 61 60 60 61 61 60 59 60 61 62 64 65 65 65 67 67 67 67 67 68 68 69 69 69 69 68 68
48 54 60 66 72 77 82 86 90 93 94 95 96 97 98 98 99 98 96 93 92 90 88 87 85 84 83 82 81 81 80 80 80 80 79 79 78 78 77 76 75 75 74 73 72 71 70 70 68 67 67 66 66 66 66 65 62 62 63 64 63 63 63 64 64 63 62 62 62 63 65 66 66 67 67 68 68 68 68 69 69 70 70 70 70 70 70 69
Wind_Direction
234 236 238 241 243 244 243 241 243 250 256 259 261 264 269 277 288 300 311 322 331 339 348 357 2 6 11 10 9 11 13 15 17 19 22 22 23 24 25 26 27 28 30 32 33 33 32 32 31 30 29 27 26 26 26 22 11 3 359 357 353 331 326 20 57 58 67 69 62 59 68 73 76 79 74 67 54 42 48 56 65 79 81 72 64 63 60 46
234 236 238 240 243 245 245 244 243 247 253 258 261 263 266 272 279 288 299 311 320 328 339 350 355 359 5 7 7 7 10 12 14 16 19 21 21 22 24 25 25 26 28 30 32 32 32 32 31 31 30 28 26 24 24 23 16 9 0 353 350 331 316 336 29 62 85 87 72 55 60 64 70 77 75 73 69 49 42 48 55 65 66 59 48 43 37 21
235 236 237 239 242 244 246 246 245 246 249 255 259 262 266 268 274 280 289 299 309 318 329 342 348 352 358 1 3 5 6 8 10 13 16 18 20 21 22 23 23 23 25 27 29 30 30 31 31 31 31 29 27 24 24 25 21 15 8 356 345 328 302 293 292 263 164 122 97 79 74 79 92 107 109 90 79 61 37 33 33 34 43 41 26 17 10 4
235 236 237 238 241 243 246 247 247 246 248 252 256 261 264 267 270 274 281 290 299 307 317 331 341 344 350 355 359 1 2 4 6 9 13 15 18 19 20 22 22 22 22 24 26 28 28 29 30 30 31 30 28 25 24 25 26 21 17 7 345 322 295 270 251 234 209 171 127 108 99 103 123 147 154 131 101 90 61 38 17 10 19 13 354 357 2 2
236 236 237 238 240 242 244 247 248 248 248 249 253 258 262 264 267 270 276 282 290 298 307 320 331 336 342 349 353 356 358 359 1 5 9 12 15 17 18 19 21 21 20 21 23 24 25 27 28 29 30 30 29 26 25 25 27 26 23 18 356 318 290 270 251 232 204 179 157 120 108 120 154 175 184 193 188 192 189 72 39 20 354 318 311 328 354 8
236 237 237 238 239 241 243 245 248 249 249 250 252 255 259 262 265 268 272 277 283 291 299 309 320 328 334 341 347 350 354 355 357 0 4 8 11 14 16 17 19 19 19 19 20 21 22 24 25 27 28 29 29 27 25 25 26 27 26 22 10 327 288 266 250 235 203 181 179 156 149 200 234 238 244 246 235 230 223 205 66 38 276 284 292 296 314 339
236 237 237 238 239 240 242 244 246 249 250 250 252 254 257 260 263 266 269 273 278 284 292 301 310 319 325 333 340 345 348 351 353 355 358 3 7 10 13 15 17 18 18 18 18 19 20 21 23 24 26 28 28 27 26 25 25 26 25 22 17 357 316 276 252 236 210 194 191 206 221 233 254 259 259 263 263 261 244 233 237 258 273 282 291 292 291 288
235 237 237 238 239 240 242 243 245 247 249 251 252 253 256 258 261 264 267 270 274 279 286 294 302 310 317 324 332 338 342 346 348 350 352 356 2 6 9 12 15 16 16 17 17 17 18 18 20 22 24 26 27 27 26 25 24 25 24 22 21 16 2 327 283 261 227 203 187 217 239 246 257 266 270 271 268 263 257 251 253 268 282 292 302 304 297 281
234 236 237 238 239 240 241 242 243 246 248 250 251 253 255 257 259 262 265 268 271 275 280 287 295 301 309 316 324 331 336 340 343 345 347 351 356 1 4 7 11 12 14 15 15 15 16 16 17 19 21 23 25 26 27 26 24 24 24 22 22 23 24 18 356 345 324 223 169 204 235 249 254 259 264 267 267 265 265 268 271 275 278 289 301 308 308 295
234 234 236 237 238 240 241 241 242 244 246 248 250 252 254 256 257 260 262 266 268 272 276 282 288 294 301 308 315 323 329 334 337 340 342 345 349 354 359 3 6 8 10 12 14 14 14 15 15 16 18 20 23 25 27 26 24 23 23 22 22 23 26 23 10 0 357 20 112 197 219 232 242 248 255 262 265 270 273 275 277 279 278 283 294 302 308 306
234 234 235 236 238 239 240 241 242 243 245 247 249 250 252 254 256 258 260 263 266 269 273 277 283 289 294 301 307 315 322 327 331 334 337 340 343 347 353 358 1 3 5 9 11 11 12 13 14 14 16 18 20 23 26 26 23 22 23 23 23 24 26 21 10 360 355 9 77 164 213 232 237 241 248 254 259 264 269 274 278 281 283 283 286 292 298 301
234 234 234 235 236 238 240 240 241 242 243 245 247 249 250 252 254 256 258 261 264 267 270 273 278 284 289 294 301 308 314 320 324 328 331 335 338 341 346 352 357 358 360 4 7 8 9 11 12 12 14 16 18 21 24 26 23 21 22 23 24 25 26 22 10 0 356 359 33 121 183 224 233 240 244 247 251 256 262 271 279 283 286 285 286 290 294 295
234 234 234 234 235 237 239 240 241 242 243 244 245 247 248 250 252 255 257 259 262 265 268 271 274 279 284 289 294 300 306 313 317 321 326 329 333 336 339 344 352 354 355 359 2 5 7 8 9 10 12 15 16 19 23 24 23 20 21 24 26 26 27 24 14 5 1 358 6 44 115 200 219 234 245 249 254 259 265 275 285 291 293 294 298 300 300 300
235 234 234 234 234 236 238 239 240 241 242 243 244 245 247 248 250 253 255 257 260 263 266 268 271 275 279 284 289 294 300 306 311 315 319 324 328 331 333 338 346 351 351 354 358 2 5 6 6 7 10 13 14 17 21 22 21 19 20 25 28 28 27 26 22 15 10 4 3 14 24 18 250 243 259 270 283 287 290 292 297 300 301 304 308 310 312 312
235 235 234 234 234 235 236 238 239 241 242 243 243 244 245 247 249 251 254 256 258 261 264 266 269 272 276 280 284 288 294 299 305 310 313 318 322 325 329 332 339 346 348 349 354 359 2 4 4 5 8 10 12 16 18 19 19 18 19 24 28 29 28 26 25 24 22 18 13 15 21 22 29 26 338 322 316 308 305 300 304 308 312 315 317 320 321 320
235 235 235 234 234 235 236 237 238 239 241 242 243 244 244 245 247 249 251 254 257 259 262 264 267 269 272 277 281 284 289 294 299 303 307 311 316 319 324 327 332 340 344 344 349 355 359 2 2 2 5 7 10 13 14 15 17 17 19 23 26 27 28 27 25 24 27 29 27 29 34 41 52 57 57 45 24 5 349 334 331 329 326 325 326 326 322 322
236 235 235 235 235 234 235 236 237 238 240 241 243 244 244 244 245 247 249 252 255 257 259 262 264 267 270 273 277 281 286 289 293 297 301 305 309 314 319 322 326 333 339 339 343 351 357 360 360 360 2 5 8 9 10 11 13 16 18 21 24 26 27 27 26 24 25 28 31 34 37 41 44 43 41 36 26 17 7 356 348 340 334 332 333 330 327 328
236 235 235 235 235 235 235 235 236 237 239 240 242 243 244 244 245 246 248 250 252 255 257 259 262 265 267 270 274 278 282 285 289 292 295 299 303 308 313 317 320 326 333 335 338 347 354 356 356 356 360 3 5 5 6 8 10 13 16 18 21 24 25 26 25 23 21 23 26 29 32 36 35 32 29 26 20 12 4 356 347 340 335 335 336 334 333 332
236 236 235 235 235 235 235 235 236 237 238 239 241 242 243 244 245 245 247 248 250 253 255 257 260 262 265 268 271 274 278 281 285 287 290 294 298 302 308 312 315 320 327 329 333 341 348 351 352 353 357 0 2 2 4 6 7 10 13 15 17 20 23 24 24 23 20 17 17 20 25 28 28 24 21 17 12 5 357 350 344 337 334 334 335 337 336 332
236 236 236 235 235 235 235 235 235 236 237 238 240 241 242 243 244 245 246 247 249 251 253 255 257 260 263 265 268 271 274 278 281 283 286 289 292 297 302 306 309 313 320 324 327 334 342 345 347 350 353 356 358 360 1 4 5 7 10 12 14 16 19 21 21 21 19 15 11 11 16 20 19 15 13 10 4 358 351 347 343 337 333 332 334 338 338 334
234 235 236 235 235 235 235 235 235 235 236 237 239 240 241 242 243 244 246 247 248 250 251 253 255 257 260 263 265 268 271 274 277 280 283 284 286 291 296 300 304 307 312 317 321 327 334 340 342 345 348 351 355 357 358 0 3 5 7 9 11 13 15 17 18 18 18 16 11 7 8 10 10 7 6 3 358 354 348 344 342 337 333 333 334 336 337 333
233 234 235 235 235 235 235 235 235 235 235 236 238 239 240 241 242 244 245 246 247 248 249 250 252 254 257 259 261 264 267 270 274 277 280 281 282 285 290 295 299 301 304 310 317 321 327 333 336 339 343 346 351 353 354 356 360 3 4 6 8 10 12 14 15 15 16 16 13 9 6 6 4 1 359 355 352 350 347 343 340 337 334 331 330 332 333 331
232 232 233 234 235 235 235 235 236 235 235 236 237 238 239 240 241 243 244 245 246 247 249 249 250 252 254 256 259 261 264 268 271 275 277 277 278 282 286 290 294 296 299 305 312 315 319 325 329 334 338 342 346 349 351 352 355 359 1 3 6 7 9 10 12 13 12 13 14 11 8 6 3 358 354 349 345 344 343 341 339 336 333 329 326 327 329 328
232 231 232 233 234 235 235 235 235 236 236 235 236 237 238 239 240 241 243 244 245 246 247 248 248 250 251 254 256 259 261 265 268 271 273 274 276 279 282 286 289 292 293 299 306 310 312 316 322 328 332 336 341 345 348 349 351 354 357 360 2 4 5 6 8 10 10 10 12 13 11 8 4 359 353 346 341 339 337 335 334 333 330 327 324 323 325 324
231 231 231 232 232 233 234 235 235 235 236 236 236 236 237 238 239 240 241 243 244 245 246 247 248 249 250 252 254 256 259 262 265 268 270 271 273 275 277 281 285 288 289 293 300 305 307 309 315 322 326 331 335 340 344 345 347 349 352 355 358 0 2 2 2 5 7 7 8 11 12 10 7 3 358 350 343 340 337 332 330 329 327 324 322 321 322 320
231 231 230 231 232 232 233 234 235 235 236 236 236 236 236 237 238 239 240 241 243 244 245 246 247 248 248 250 252 254 257 259 261 265 267 269 270 271 273 277 280 283 286 288 293 299 302 303 307 314 319 325 329 334 339 342 344 346 348 350 353 355 358 359 358 359 1 3 4 6 9 9 8 6 2 357 349 344 342 338 337 333 327 322 320 319 319 318
232 231 230 230 231 231 232 233 234 235 235 236 236 236 236 236 238 239 239 240 241 243 244 245 246 247 247 248 249 252 254 256 259 262 265 266 265 267 270 273 276 280 282 284 288 294 297 299 301 306 312 318 323 328 333 337 339 342 343 346 348 349 352 355 354 354 355 357 358 0 4 6 6 4 2 1 354 348 346 344 345 342 335 328 322 319 317 316
232 231 230 229 230 230 231 232 233 234 234 235 236 236 236 236 237 238 239 239 240 242 243 244 245 246 246 247 248 249 251 254 256 259 262 262 263 264 266 269 273 277 279 281 283 287 292 295 297 300 305 310 317 322 326 331 334 337 339 341 343 344 346 349 350 350 350 351 351 352 356 0 3 1 358 359 355 349 347 345 346 346 342 337 330 323 319 317
231 231 230 229 229 229 230 231 232 233 234 234 235 235 236 236 236 237 238 239 239 241 242 243 244 244 245 246 246 247 249 252 254 256 259 260 262 262 263 266 270 274 276 278 279 282 287 291 293 297 300 304 310 315 320 324 328 332 333 336 338 339 340 343 344 345 346 347 346 345 346 351 357 357 353 355 355 350 347 344 344 344 342 340 337 330 324 321
231 231 230 229 229 229 229 230 231 232 233 233 234 235 235 235 236 236 237 238 239 240 241 242 243 244 245 245 245 246 247 250 252 254 256 258 259 260 261 263 266 270 273 275 276 278 282 286 291 294 296 299 303 308 312 317 321 324 326 330 333 334 335 337 338 339 340 342 343 341 339 340 346 349 347 350 353 349 346 344 342 342 340 339 338 334 329 325
230 230 230 229 229 228 229 230 231 231 232 233 233 234 235 235 235 236 236 237 238 239 240 241 242 243 244 244 244 245 246 247 250 252 255 257 258 258 258 260 263 266 269 272 274 276 279 282 287 291 293 295 297 301 304 308 313 316 319 324 327 328 330 332 333 334 334 336 338 339 337 334 337 340 339 342 347 346 344 342 340 339 339 338 338 335 330 326
231 229 229 229 229 228 228 229 230 230 231 232 233 234 234 235 235 235 236 236 237 238 239 240 241 242 243 243 244 244 245 247 248 251 254 255 255 255 255 257 260 263 266 270 272 274 276 280 283 287 290 292 292 295 297 300 305 309 313 318 321 323 325 327 329 329 330 331 333 335 335 333 333 333 332 334 339 340 339 338 337 337 337 337 338 335 330 327
232 230 229 228 228 228 228 228 229 230 230 231 232 233 234 234 235 235 235 236 236 237 238 239 240 242 243 243 245 245 245 245 247 249 251 252 252 252 253 254 257 260 264 267 269 271 274 277 280 283 286 288 290 291 292 294 300 304 308 313 317 319 321 324 325 326 326 327 329 331 332 332 332 331 329 329 330 332 334 333 332 333 334 335 337 336 332 328
232 230 228 228 228 227 227 228 228 229 230 231 231 232 233 234 234 235 235 235 236 237 238 239 240 241 242 243 244 245 244 244 245 247 249 250 250 250 251 253 256 259 261 263 266 269 273 275 277 279 282 285 288 290 290 292 295 299 304 309 312 315 318 320 322 323 323 324 326 327 328 329 330 329 329 327 325 325 327 327 327 329 330 332 335 335 333 330
233 231 229 227 227 227 227 227 228 228 229 230 231 231 232 233 234 234 235 235 236 236 237 238 239 240 241 242 243 243 243 243 243 245 247 247 248 249 250 252 255 257 259 261 264 267 270 273 275 276 278 282 285 288 289 291 292 295 300 304 307 311 314 316 319 320 320 321 322 324 325 325 326 327 328 326 323 322 322 322 323 324 326 329 332 333 333 331
232 231 229 227 226 226 226 226 227 228 229 229 230 231 231 232 233 234 234 235 235 236 236 238 239 239 240 241 242 243 243 242 243 244 245 246 248 249 250 251 253 255 257 260 263 266 269 271 273 274 276 279 282 285 288 290 291 292 295 298 302 306 310 312 314 315 317 318 319 320 321 321 322 324 325 324 322 320 318 319 320 321 323 326 329 330 331 331
232 231 229 227 226 225 225 225 226 227 228 229 230 230 231 232 233 233 234 234 235 235 236 237 238 239 240 241 241 242 243 243 243 244 245 246 247 248 249 250 252 254 257 260 263 265 267 269 271 273 274 277 279 282 286 289 290 291 292 294 298 302 306 308 310 312 314 316 316 316 317 318 319 321 321 322 320 318 317 316 318 319 321 323 326 326 328 329
231 231 229 227 226 225 224 224 225 226 227 228 229 230 231 232 232 233 233 234 234 235 235 236 237 238 239 240 241 242 243 243 243 243 244 245 246 247 248 250 251 254 257 260 262 264 266 267 269 271 273 274 277 279 283 287 289 289 290 292 295 299 302 304 306 309 312 313 313 313 313 316 318 318 318 319 318 317 316 315 316 318 319 322 323 323 325 328
231 230 228 226 225 224 224 224 224 224 226 227 228 230 231 231 232 232 233 233 234 234 235 236 237 238 239 240 240 241 242 242 242 242 243 244 245 246 248 249 251 254 257 259 262 264 265 266 268 269 271 273 274 277 280 284 286 287 289 290 292 296 298 300 303 306 309 310 311 310 310 313 316 317 316 316 316 316 315 315 315 316 318 320 320 321 323 326
230 229 228 226 225 224 223 223 223 223 224 226 227 229 230 231 231 231 232 233 233 234 234 235 236 237 238 239 240 241 241 242 242 242 243 244 245 246 248 249 251 254 257 259 261 263 264 265 266 268 270 271 272 275 278 281 283 285 287 288 290 293 295 297 301 303 306 308 308 308 307 310 314 315 314 314 314 315 315 314 314 315 317 317 318 319 321 324
230 229 228 226 225 224 223 222 221 222 223 225 226 228 229 230 230 231 231 232 233 233 234 234 235 236 237 238 239 240 241 242 242 242 242 243 244 246 247 249 251 254 256 258 260 263 264 266 266 267 268 270 271 272 275 278 281 283 285 287 289 290 292 295 298 301 303 305 306 307 305 307 312 314 312 312 313 313 313 312 313 314 315 315 316 318 320 322
230 229 227 225 224 223 222 221 220 221 222 224 225 227 228 229 230 230 231 232 232 233 233 234 235 236 237 237 238 239 240 241 241 241 241 242 244 245 246 248 250 253 255 257 260 262 264 265 266 267 268 269 270 270 271 275 279 282 283 285 286 288 290 293 296 299 301 302 304 305 303 304 310 311 310 310 311 311 311 311 312 313 313 313 314 316 318 320
230 229 227 225 223 222 221 220 219 220 221 223 225 226 228 229 229 230 230 231 232 232 233 233 234 235 236 237 238 239 240 240 241 241 241 242 243 245 246 247 250 252 254 256 259 261 263 265 266 267 268 269 269 269 270 273 277 280 282 283 284 286 289 291 294 297 299 300 302 303 301 303 308 308 308 309 309 310 310 311 311 311 311 312 313 315 316 318
230 229 227 224 223 221 220 219 219 219 221 222 224 226 227 228 229 229 230 231 232 232 233 233 234 235 236 236 237 238 239 240 241 241 242 243 244 245 246 247 249 251 253 255 258 260 262 264 266 267 268 269 268 268 269 272 276 278 280 281 283 284 287 289 292 295 297 299 301 300 300 302 305 305 306 307 308 308 309 310 310 310 310 311 312 314 315 316
231 229 226 224 222 221 219 219 218 219 220 221 223 225 226 227 228 228 229 230 231 232 233 233 234 234 235 236 237 238 239 240 241 241 242 243 244 245 247 248 249 251 253 255 257 259 261 263 265 267 268 268 268 268 270 272 275 277 278 280 282 283 286 288 290 293 295 297 298 298 300 301 301 302 305 306 306 307 308 308 308 309 310 311 312 313 313 314
231 228 226 224 222 220 219 218 218 218 219 221 222 224 225 226 227 227 228 229 230 231 232 233 233 234 235 236 237 238 239 240 240 241 242 243 244 245 246 248 249 250 252 254 256 259 260 262 265 267 267 267 268 269 270 271 273 275 277 279 281 283 285 286 289 291 294 296 296 296 299 299 298 300 303 304 305 306 306 306 307 308 309 310 311 312 313 314
231 228 225 223 222 220 219 218 218 218 219 220 222 223 225 226 226 227 227 228 229 230 231 232 233 234 234 235 236 237 238 239 240 241 242 243 245 245 247 248 249 250 252 253 255 258 260 262 264 266 266 267 267 268 269 270 272 274 276 278 280 282 283 285 288 291 293 294 294 295 298 297 296 298 302 303 304 304 304 305 307 308 309 309 310 311 312 313
230 227 225 223 221 220 219 218 218 218 219 220 221 223 224 225 226 226 227 228 229 230 231 232 232 233 234 235 236 236 238 239 240 241 242 243 245 245 247 248 249 250 252 253 255 257 259 261 263 264 265 266 266 267 268 270 271 273 275 277 279 280 282 284 288 290 291 293 294 295 297 295 295 298 301 302 303 303 304 305 307 307 308 308 309 310 311 312
230 227 225 223 221 219 219 218 218 218 219 220 221 222 224 225 226 226 226 227 228 229 231 232 232 233 234 234 235 236 237 238 239 241 242 243 244 245 246 248 249 250 252 253 255 256 258 260 261 262 264 265 266 266 267 269 271 272 274 276 278 279 281 284 287 288 289 291 293 294 294 293 295 298 300 301 302 303 303 304 305 305 306 306 307 308 309 311
231 227 224 222 220 219 219 218 218 218 219 220 221 222 223 224 225 225 226 226 227 229 230 231 232 233 234 234 235 236 237 238 239 240 242 243 244 245 246 248 249 250 252 253 255 256 258 260 260 261 262 264 265 266 268 269 271 273 274 275 277 278 281 284 285 286 288 290 291 291 291 291 293 296 298 298 300 301 301 302 303 303 304 305 306 307 309 311
232 227 224 222 220 219 218 218 218 218 219 219 220 222 223 224 225 225 225 225 226 228 230 231 232 233 234 235 236 237 237 238 239 240 241 243 244 245 247 248 249 251 252 254 255 257 259 259 260 260 261 263 265 267 269 270 272 274 275 275 276 279 281 282 283 285 287 288 288 288 289 289 291 294 295 296 297 298 299 300 300 301 302 303 305 306 309 311
233 227 224 222 220 219 218 218 218 218 219 219 220 221 223 224 225 225 225 225 226 227 229 231 232 232 234 235 236 237 238 238 239 240 241 243 244 245 247 248 250 251 253 255 256 258 259 259 260 261 262 263 265 268 270 272 275 276 275 276 277 279 280 281 282 284 286 286 286 286 287 289 291 292 293 295 296 296 297 298 299 300 301 303 304 306 308 310